Simultaneous Nadir Overpasses (SNOs) Predictions

Prediction of SNOs between AQUA and METOP-A Satellite Orbit:

Table of predicted SNOs for the next 14.0 days since TLE Epoch: 3/29/2019
Index Date (AQUA) Time (AQUA) Lat,Lon (AQUA) SZA (AQUA ) Date (METOP-A) Time (METOP-A) Lat,Lon (METOP-A) SZA (METOP-A ) Distance(km) Time Diff (sec)
1 03/29/2019 16:14:57 74.93, -71.96 71.61 03/29/2019 16:13:44 74.86, -72.39 71.58 14.63 73
2 03/29/2019 17:04:25 -75.03, 95.41 108.30 03/29/2019 17:04:22 -75.03, 95.42 108.29 0.24 3
3 03/29/2019 17:53:53 75.07, -97.07 71.75 03/29/2019 17:55:01 75.07, -97.14 71.73 2.17 68
4 04/01/2019 11:49:11 74.80, -5.20 70.37 04/01/2019 11:48:00 74.75, -6.27 70.38 31.96 71
5 04/01/2019 12:38:42 -75.05, 161.79 109.37 04/01/2019 12:38:36 -75.02, 161.81 109.40 3.04 6
6 04/01/2019 13:28:10 75.10, -30.69 70.67 04/01/2019 13:29:14 75.10, -30.63 70.67 2.11 64
7 04/04/2019 07:23:24 74.67, 61.55 69.14 04/04/2019 07:22:15 74.64, 59.84 69.20 50.55 69
8 04/04/2019 08:12:57 -75.03,-131.72 110.48 04/04/2019 08:12:49 -75.02,-131.80 110.49 2.59 8
9 04/04/2019 09:02:25 75.07, 35.81 69.55 04/04/2019 09:03:27 75.09, 35.75 69.57 2.91 62
10 04/07/2019 02:57:39 74.60, 128.16 67.99 04/07/2019 02:56:31 74.53, 125.96 68.03 65.72 68
11 04/07/2019 03:47:14 -75.06, -65.38 111.52 04/07/2019 03:47:02 -75.06, -65.28 111.53 2.81 12
12 04/07/2019 04:36:42 75.10, 102.15 68.51 04/07/2019 04:37:41 75.08, 102.12 68.48 2.85 59
13 04/09/2019 22:31:53 74.49,-165.12 66.80 04/09/2019 22:30:47 74.41,-167.92 66.88 83.84 66
14 04/09/2019 23:21:30 -75.05, 1.09 112.59 04/09/2019 23:21:16 -75.05, 1.10 112.59 0.60 14
15 04/10/2019 00:10:58 75.09, 168.62 67.44 04/10/2019 00:11:54 75.11, 168.62 67.45 2.58 56




NCC Satellite Simultaneous Nadir Overpasses (SNOs) Prediction Service
